Location: De Greiden
(52.9496°N, 5.9137°E)
Time: 00:58:12
(UTC+00:00)

Meteor 2-10 Rocket - Pass Details

Date: 24 January 2021
Orbit: 733 x 885 km, 81.2° (Epoch: 26 February)

Event Time Altitude Azimuth Distance (km) Brightness Sun altitude
Rises 16:46:26 0° 347° (NNW) 3,410 6.7 -6.2°
Reaches altitude 10° 16:48:56 10° 351° (N) 2,449 6.0 -6.5°
Maximum altitude 16:54:26 65° 73° (ENE) 887 3.6 -7.3°
Drops below altitude 10° 16:59:40 10° 155° (SSE) 2,330 6.0 -8.0°
Sets 17:01:59 0° 159° (SSE) 3,232 6.7 -8.4°
